SCP
0 0 0 0 0 0 0 0 0 0 0 0 0 0 0 0 0 0 0 0 0 0
0 0 0 0 0 0 0 0 0 0 0 0 0 0 0 0 0 0 0 0 0 0
0 0 0 -0 -0 -0 0 0 0 0 0 0 0 0 0 0 0 0 0 0 0 0
0 0 0 0 -0 -0 -0 -0 -0 0 0 0 0 0 0 0 0 0 -0 0 0 0
0 0 0 0 0 -0 -0 -0 -0 -0 -0 -0 -0 0 0 0 0 -0 -0 -0 0 0
0 0 0 0 0 0 -0 -0 -0 -0 -0 -0 -0 -0 -0 -0 -0 -0 -0 -0 0 0
0 0 0 0 0 0 0 0 0 0 0 0 0 0 -0 -0 -0 -0 -0 0 0 0
0 0 0 0 0 0 0 0 0 0 0 0 0 0 0 0 0 0 0 0 0 0
0 0 0 0 0 0 0 0 0 0 0 0 0 0 0 0 0 0 0 0 0 0
0 0 0 0 0 0 0 0 0 0 0 0 0 0 0 0 0 0 0 0 0 0
0 0 0 0 0 0 0 0 0 0 0 0 0 0 0 0 0 0 0 0 0 0
0 0 0 0 0 0 0 0 0 0 0 0 0 0 0 0 0 0 0 0 0 0
0 0 0 0 0 0 0 0 0 0 0 0 0 0 0 0 0 0 0 0 0 0
0 0 0 0 0 0 0 0 0 0 0 0 0 0 0 0 0 0 0 0 0 0
Wind_Speed_500mb
40 39 39 40 41 39 39 54 65 80 82 102 108 108 89 84 81 84 66 69 67 58
45 44 42 42 43 43 45 48 54 70 83 94 103 96 96 89 82 67 69 68 66 57
45 45 44 47 51 51 45 51 57 61 70 80 73 76 79 85 83 76 77 65 57 63
51 47 48 53 53 53 53 54 58 64 77 91 95 94 93 95 93 91 76 70 60 60
49 50 51 57 59 53 48 50 54 63 68 69 82 88 92 97 97 94 92 75 62 63
56 54 56 58 62 57 50 47 46 54 65 67 72 75 87 94 102 103 99 83 67 69
61 60 58 57 62 63 58 55 54 59 65 70 72 71 74 81 83 87 89 88 80 71
58 57 60 62 64 65 66 64 64 62 71 75 75 72 78 79 81 84 84 81 79 81
54 58 62 64 65 66 66 70 71 76 76 83 87 86 87 91 92 91 90 89 89 88
52 56 60 65 68 70 70 69 75 80 83 87 87 86 86 92 100 102 101 100 99 99
49 50 56 61 67 71 72 73 74 79 82 85 87 83 83 86 91 96 100 101 105 103
48 55 57 63 67 67 67 74 78 79 81 83 85 82 78 74 80 88 94 95 96 97
53 60 58 61 65 69 71 72 69 73 80 84 83 82 76 78 80 82 86 89 93 95
44 52 61 66 57 62 67 68 74 80 84 83 85 78 75 76 82 85 85 90 92 85
Wind_Direction_500mb
207 203 204 216 218 218 225 225 220 209 210 200 189 190 191 188 194 196 193 213 212 219
202 201 200 211 209 214 219 213 206 206 192 187 187 186 179 187 195 198 203 217 217 222
201 201 201 203 207 203 200 184 174 178 187 185 183 185 202 196 194 203 210 218 223 227
204 204 204 203 202 205 203 205 198 190 190 194 200 203 203 208 200 204 218 220 237 237
205 205 207 208 208 210 214 220 223 218 216 211 204 204 205 207 211 211 219 230 239 240
207 208 209 211 212 219 222 221 220 217 214 213 210 211 217 217 211 220 225 233 246 246
212 211 209 211 217 222 226 232 225 220 220 220 221 221 218 221 224 227 234 238 246 245
219 220 219 216 216 223 229 232 233 228 223 221 222 228 228 227 230 233 238 241 245 253
229 228 226 225 223 224 229 232 232 233 231 228 232 236 234 230 231 235 239 244 251 258
233 234 234 230 231 231 230 233 235 235 237 238 239 237 236 235 239 243 247 250 255 259
240 242 243 236 236 235 236 236 238 240 241 243 243 243 241 241 243 248 252 254 258 261
259 251 247 243 241 241 241 240 241 243 246 248 249 248 248 246 244 246 251 254 256 259
237 249 255 252 249 246 246 245 247 246 246 245 248 249 247 248 247 248 250 253 253 253
248 242 242 250 257 253 246 247 247 245 246 247 246 252 247 244 247 244 245 248 246 245
Wind_Speed_850mb
40 39 39 40 41 39 39 54 65 80 82 102 108 108 89 84 81 84 66 69 67 58
45 44 42 42 43 43 45 48 54 70 83 94 103 96 96 89 82 67 69 68 66 57
45 45 44 47 51 51 45 51 57 61 70 80 73 76 79 85 83 76 77 65 57 63
51 47 48 53 53 53 53 54 58 64 77 91 95 94 93 95 93 91 76 70 60 60
49 50 51 57 59 53 48 50 54 63 68 69 82 88 92 97 97 94 92 75 62 63
56 54 56 58 62 57 50 47 46 54 65 67 72 75 87 94 102 103 99 83 67 69
61 60 58 57 62 63 58 55 54 59 65 70 72 71 74 81 83 87 89 88 80 71
58 57 60 62 64 65 66 64 64 62 71 75 75 72 78 79 81 84 84 81 79 81
54 58 62 64 65 66 66 70 71 76 76 83 87 86 87 91 92 91 90 89 89 88
52 56 60 65 68 70 70 69 75 80 83 87 87 86 86 92 100 102 101 100 99 99
49 50 56 61 67 71 72 73 74 79 82 85 87 83 83 86 91 96 100 101 105 103
48 55 57 63 67 67 67 74 78 79 81 83 85 82 78 74 80 88 94 95 96 97
53 60 58 61 65 69 71 72 69 73 80 84 83 82 76 78 80 82 86 89 93 95
44 52 61 66 57 62 67 68 74 80 84 83 85 78 75 76 82 85 85 90 92 85
Wind_Direction_850mb
207 203 204 216 218 218 225 225 220 209 210 200 189 190 191 188 194 196 193 213 212 219
202 201 200 211 209 214 219 213 206 206 192 187 187 186 179 187 195 198 203 217 217 222
201 201 201 203 207 203 200 184 174 178 187 185 183 185 202 196 194 203 210 218 223 227
204 204 204 203 202 205 203 205 198 190 190 194 200 203 203 208 200 204 218 220 237 237
205 205 207 208 208 210 214 220 223 218 216 211 204 204 205 207 211 211 219 230 239 240
207 208 209 211 212 219 222 221 220 217 214 213 210 211 217 217 211 220 225 233 246 246
212 211 209 211 217 222 226 232 225 220 220 220 221 221 218 221 224 227 234 238 246 245
219 220 219 216 216 223 229 232 233 228 223 221 222 228 228 227 230 233 238 241 245 253
229 228 226 225 223 224 229 232 232 233 231 228 232 236 234 230 231 235 239 244 251 258
233 234 234 230 231 231 230 233 235 235 237 238 239 237 236 235 239 243 247 250 255 259
240 242 243 236 236 235 236 236 238 240 241 243 243 243 241 241 243 248 252 254 258 261
259 251 247 243 241 241 241 240 241 243 246 248 249 248 248 246 244 246 251 254 256 259
237 249 255 252 249 246 246 245 247 246 246 245 248 249 247 248 247 248 250 253 253 253
248 242 242 250 257 253 246 247 247 245 246 247 246 252 247 244 247 244 245 248 246 245